Regional Weather Roundup
Issued by NWS

Home | Current Version | Previous Version | Graphics & Text | Print | Product List | Glossary On
Versions: 1 2 3 4 5 6 7 8 9 10 11 12 13 14 15 16 17 18 19 20 21 22 23 24 25 26 27 28 29 30 31 32 33 34 35 36 37 38 39 40 41 42 43 44 45 46 47 48 49 50
779
ASUS44 KMEG 220810
RWRTN
TENNESSEE HOURLY STATE WEATHER ROUNDUP
NATIONAL WEATHER SERVICE MEMPHIS TN
200 AM CST THU FEB 22 2018

TNZ002-004-019-021-049-052-054-088>092-220900-
WEST TENNESSEE

CITY           SKY/WX    TMP DP  RH WIND       PRES   REMARKS
MEMPHIS INTL   RAIN      43  42  97 E6        30.25F FOG
NWS MEMPHIS      N/A     43 N/A N/A MISG        N/A
JACKSON        RAIN      48  48 100 NE3       30.25F
DYERSBURG      LGT RAIN  41  40  96 N6        30.29R
SOMERVILLE     CLOUDY    48  46  93 NW7       30.26S FOG
COVINGTON      CLOUDY    43  43 100 N7        30.28F
UNION CITY     CLOUDY    43  41  93 NE7       30.26F
BOLIVAR        CLOUDY    48  48 100 CALM      30.24S FOG
PARIS          CLOUDY    45  43  93 NE10      30.24F FOG
HUNTINGDON     CLOUDY    46  45  93 NE8       30.25F FOG
LEXINGTON      CLOUDY    46  46 100 NE9       30.26S FOG
SAVANNAH       FOG       50  50 100 E9        30.26R VSB 1
$$

TNZ008-025-027-028-033-062-065-066-220900-
NORTH MIDDLE TENNESSEE

CITY           SKY/WX    TMP DP  RH WIND       PRES   REMARKS
NASHVILLE      CLOUDY    51  50  96 SE3       30.24F FOG
PORTLAND       CLOUDY    52  52 100 E5        30.23F
CLARKSVILLE    RAIN      46  44  93 NW14      30.29R FOG
SMYRNA         FOG       52  52 100 S3        30.26F VSB 3/4
COOKEVILLE     CLOUDY    55  55 100 CALM      30.25S
GALLATIN       CLOUDY    52  50  93 NE3       30.26F
CROSSVILLE     FAIR      66  60  81 S10G24    30.30S
$$

TNZ061-075-076-078-094-096-097-220900-
SOUTH MIDDLE TENNESSEE

CITY           SKY/WX    TMP DP  RH WIND       PRES   REMARKS
FAYETTEVILLE   MOCLDY    68  63  83 S14       30.26S
TULLAHOMA      MOCLDY    66  61  82 S10       30.26S
WINCHESTER     CLEAR     70  61  73 S12       30.28S
MCMINNVILLE    CLOUDY    63  59  88 SW7       30.26S
COLUMBIA       CLOUDY    52  52 100 E6        30.22F
SHELBYVILLE    FOG       52  52 100 SE3       30.25F VSB 0
$$

TNZ017-018-042-046-047-220900-
NORTHEAST TENNESSEE

CITY           SKY/WX    TMP DP  RH WIND       PRES   REMARKS
TRI CITIES     CLOUDY    58  57  97 CALM      30.32F
ELIZABETHTON   FAIR      57  54  88 CALM      30.34F
$$

TNZ012-013-036-069-073-074-220900-
CENTRAL EAST TENNESSEE

CITY           SKY/WX    TMP DP  RH WIND       PRES   REMARKS
KNOXVILLE      MOCLDY    67  59  75 SW9       30.28F
OAK RIDGE      FAIR      70  63  78 S7        30.29F
DOWNTOWN KNOXV PTCLDY    55  55 100 CALM      30.29F FOG
GATLINBURG     PTCLDY    59  55  88 CALM      30.29F
MORRISTOWN     PTCLDY    61  55  82 CALM      30.30F
JACKSBORO      CLOUDY    72  61  68 S16G25    30.32S
$$

TNZ083-085-099-220900-
SOUTHEAST TENNESSEE

CITY           SKY/WX    TMP DP  RH WIND       PRES   REMARKS
CHATTANOOGA    FAIR      69  61  75 S7        30.30S
$$

SKY/WX REPORTED AS FAIR MEANS FEW OR NO CLOUDS BELOW
12 THOUSAND FEET.





USA.gov is the U.S. government's official web portal to all federal, state and local government web resources and services.